COSMOS 2550

Last updated on Thu Nov 21 2024 00:02:13 GMT+0000 (Coordinated Universal Time)

1 48865U 21056A 24325.58870589 .00000397 00000+0 17894-4 0 9992 2 48865 67.1415 35.1826 0008363 269.6353 90.3843 15.33831537190754
UTC large
Height (km)
Speed (km/s)
/
Latitude / Longitude
Inclination (degrees)
Orbital Period (minutes)
Azimuth
Elevation
Range (km)
Doppler Factor

Next 0 passes for location: London (51.5072 / 0.1276)

Sorry there are no passes over London.